Regional Weather Roundup
Issued by NWS

Home | Current Version | Previous Version | Text Only | Print | Product List | Glossary Off
Versions: 1 2 3 4 5 6 7 8 9 10 11 12 13 14 15 16 17 18 19 20 21 22 23 24 25 26 27 28 29 30 31 32 33 34 35 36 37 38 39 40 41 42 43 44 45 46 47 48 49 50

000
ASUS43 KOAX 201710
RWRNE

WEATHER ROUNDUP FOR NEBRASKA
NATIONAL WEATHER SERVICE OMAHA NE
1200 PM CDT FRI APR 20 2018

NOTES: SATELLITE DATA IS BEING USED TO AUGMENT CLOUD COVER ABOVE
       12000 FEET.
       "FAIR" INDICATES FEW OR NO CLOUDS BELOW 12,000 FEET WITH NO
       SIGNIFICANT WEATHER AND/OR OBSTRUCTIONS TO VISIBILITY.


NEZ001>004-019>022-054>056-201800-
NEBRASKA PANHANDLE

CITY           SKY/WX    TMP DP  RH WIND       PRES   REMARKS
SCOTTSBLUFF    CLOUDY    44  33  65 SE23G31   30.08R
ALLIANCE       LGT RAIN  39  37  92 S22G30    30.12R WCI  29
CHADRON        CLOUDY    49  32  52 S14G24    30.12R
GORDON         LGT RAIN  44  31  59 S15       30.16R
KIMBALL        CLOUDY    41  32  70 SE23G31   30.07R
SIDNEY         SNOW      33  32  96 SE21G28   30.10R VSB 1/2 WCI  21
$$

NEZ057>060-069>072-079>082-201800-
SOUTHWEST NEBRASKA

CITY           SKY/WX    TMP DP  RH WIND       PRES   REMARKS
NORTH PLATTE   CLOUDY    46  30  53 S13       30.22S
IMPERIAL       LGT RAIN  42  33  70 SE18G30   30.15R
LEXINGTON      CLOUDY    49  32  51 SE16      30.26S
MCCOOK         CLOUDY    46  31  55 SE16      30.21F
OGALLALA       CLOUDY    46  30  54 SE20      30.18R
$$

NEZ005>010-023>029-035>040-094-201800-
NORTH CENTRAL NEBRASKA

CITY           SKY/WX    TMP DP  RH WIND       PRES   REMARKS
VALENTINE      CLOUDY    49  30  48 S16       30.24S
AINSWORTH      CLOUDY    47  32  56 S16       30.26S
BROKEN BOW     CLOUDY    46  32  58 SE16      30.26F
O`NEILL        CLOUDY    51  35  53 S16       30.33S
ORD            CLOUDY    48  33  56 SE13G24   30.29F
THEDFORD       CLOUDY    48  31  52 SE16G25   30.24S
$$

NEZ041-046>049-061>064-073>077-083>087-201800-
SOUTH CENTRAL NEBRASKA

CITY           SKY/WX    TMP DP  RH WIND       PRES   REMARKS
GRAND ISLAND   CLOUDY    50  32  50 SE18      30.32F
AURORA         CLOUDY    52  31  45 S17       30.32F
HASTINGS       MOSUNNY   53  33  46 SE14G26   30.31F
HEBRON         CLOUDY    57  31  37 SE21      30.33S
HOLDREGE       CLOUDY    50  33  51 SE21G28   30.27S
KEARNEY        MOSUNNY   50  32  50 S17       30.29F
YORK             N/A     54  32  43 S17       30.33F
$$

NEZ011>018-030>034-042>045-201800-
NORTHEAST NEBRASKA

CITY           SKY/WX    TMP DP  RH WIND       PRES   REMARKS
NORFOLK        CLOUDY    52  32  46 S21       30.34F
ALBION         CLOUDY    52  33  49 S14G21    30.34F
BLAIR          PTSUNNY   54  31  41 S14       30.40R
COLUMBUS       MOSUNNY   54  33  45 SE14G23   30.37F
FREMONT        CLOUDY    56  31  38 SE17G23   30.40S
TEKAMAH        CLOUDY    54  32  43 SE14      30.41F
WAYNE          PTSUNNY   51  33  49 S16       30.39S
$$

NEZ050>053-065>068-078-088>093-201800-
SOUTHEAST NEBRASKA

CITY           SKY/WX    TMP DP  RH WIND       PRES   REMARKS
LINCOLN        MOSUNNY   55  31  39 S15G21    30.39F
OMAHA EPPLEY   PTSUNNY   55  30  38 SE15      30.41F
BEATRICE       MOSUNNY   57  33  40 SE15G25   30.36F
FALLS CITY     CLOUDY    57  29  34 SE15G26   30.39F
NEBRASKA CITY  CLOUDY    56  32  40 SE14      30.40S
PLATTSMOUTH    PTSUNNY   55  31  39 SE17      30.40F
$$

NEZ044-045-051>053-067-201800-
OMAHA AREA

CITY           SKY/WX    TMP DP  RH WIND       PRES   REMARKS
OMAHA EPPLEY   PTSUNNY   55  30  38 SE15      30.41F
BLAIR          PTSUNNY   54  31  41 S14       30.40R
FREMONT        CLOUDY    56  31  38 SE17G23   30.40S
MILLARD        PTSUNNY   56  33  42 SE16      30.40F
OFFUTT AFB     PTSUNNY   55  32  41 SE8       30.40F
PLATTSMOUTH    PTSUNNY   55  31  39 SE17      30.40F
WAHOO          FAIR      56  26  31 S20       30.39S
$$




USA.gov is the U.S. government's official web portal to all federal, state and local government web resources and services.